This is the latest recevied weather packets stored in our database for station/object KC8UZG. If no packets are shown the sender has not sent any weather packets the latest 10 day(s).
| Time | Temp. | Humidity | Pressure | Rain* | Wind** | Luminosity | Snow |
|---|---|---|---|---|---|---|---|
| 1778123723 | 7.78° C | 94% | 1013.8 hPa | 0 mm | - | 0 W/m² | - |
| 1778123130 | 7.78° C | 93% | 1013.9 hPa | 0 mm | - | 0 W/m² | - |
| 1778122536 | 7.78° C | 91% | 1013.9 hPa | 0 mm | - | 0 W/m² | - |
| 1778121942 | 7.78° C | 90% | 1013.9 hPa | 0 mm | - | 0 W/m² | - |
| 1778121321 | 7.22° C | 90% | 1013.9 hPa | 0 mm | - | 0 W/m² | - |
| 1778120727 | 7.78° C | 91% | 1013.9 hPa | 0 mm | - | 0 W/m² | - |
| 1778120133 | 7.78° C | 90% | 1013.9 hPa | 0 mm | - | 0 W/m² | - |
| 1778119539 | 7.78° C | 89% | 1013.9 hPa | 0 mm | - | 0 W/m² | - |
| 1778118918 | 7.78° C | 87% | 1013.6 hPa | 0 mm | - | 0 W/m² | - |
| 1778118323 | 8.33° C | 83% | 1013.6 hPa | 0 mm | - | 0 W/m² | - |
| 1778117730 | 8.33° C | 81% | 1013.5 hPa | 0 mm | - | 0 W/m² | - |
| 1778117136 | 8.89° C | 79% | 1013.4 hPa | 0 mm | - | 0 W/m² | - |
| 1778116542 | 9.44° C | 76% | 1013.4 hPa | 0 mm | - | 0 W/m² | - |
| 1778115921 | 10° C | 74% | 1013.4 hPa | 0 mm | - | 0 W/m² | - |
| 1778115327 | 10.56° C | 69% | 1013.4 hPa | 0 mm | - | 0 W/m² | - |
| 1778114732 | 11.11° C | 68% | 1013.2 hPa | 0 mm | - | 0 W/m² | - |
| 1778114138 | 11.11° C | 68% | 1012.9 hPa | 0 mm | - | 0 W/m² | - |
| 1778113518 | 11.67° C | 66% | 1012.9 hPa | 0 mm | - | 0 W/m² | - |
| 1778112924 | 12.22° C | 65% | 1012.6 hPa | 0 mm | - | 3 W/m² | - |
| 1778112330 | 12.22° C | 64% | 1012.6 hPa | 0 mm | - | 9 W/m² | - |
| 1778111735 | 12.78° C | 64% | 1012.8 hPa | 0 mm | - | 15 W/m² | - |
| 1778111141 | 12.78° C | 64% | 1012.5 hPa | 0 mm | - | 23 W/m² | - |
| 1778110521 | 12.78° C | 65% | 1012.5 hPa | 0 mm | - | 25 W/m² | - |
| 1778109927 | 12.78° C | 63% | 1012.5 hPa | 0 mm | - | 28 W/m² | - |
| 1778109332 | 13.33° C | 64% | 1012.5 hPa | 0 mm | - | 34 W/m² | - |
* Rain latest hour (hover to see other rain measurements)
** Current wind speed in m/s (hover to see current wind gust speed)